N124MC KUNV-KELM

Flight info

Callsign N124MC
Flight time 0h 32m
Altitude 5500
Route VFR
Aircraft M20P/L-VGD/C

Departure

Time 2026-05-04 22:41
Airport State College Regional Airport (KUNV)

Arrival

Time 2026-05-04 23:13
Airport Elmira Corning Regional Airport (KELM)
Time Latitude Longitude Altitude Speed Heading
2026-05-04 22:14 40.85301 -77.84873 1224 ft 0 kts 325°
2026-05-04 22:34 40.85301 -77.84880 1224 ft 4 kts 226°
2026-05-04 22:34 40.85258 -77.84891 1224 ft 9 kts 148°
2026-05-04 22:34 40.85209 -77.84847 1224 ft 4 kts 144°
2026-05-04 22:35 40.85209 -77.84846 1224 ft 0 kts 144°
2026-05-04 22:36 40.85201 -77.84838 1224 ft 8 kts 146°
2026-05-04 22:36 40.85160 -77.84728 1224 ft 19 kts 54°
2026-05-04 22:36 40.85261 -77.84556 1223 ft 30 kts 51°
2026-05-04 22:36 40.85400 -77.84314 1223 ft 35 kts 51°
2026-05-04 22:37 40.85512 -77.84119 1222 ft 19 kts 54°
2026-05-04 22:37 40.85603 -77.83969 1223 ft 22 kts 52°
2026-05-04 22:37 40.85622 -77.83870 1221 ft 0 kts 141°
2026-05-04 22:39 40.85597 -77.83849 1217 ft 17 kts 149°
2026-05-04 22:39 40.85458 -77.83961 1212 ft 42 kts 237°
2026-05-04 22:40 40.85230 -77.84366 1224 ft 62 kts 233°
2026-05-04 22:40 40.84987 -77.84838 1292 ft 67 kts 228°
2026-05-04 22:40 40.84691 -77.85327 1399 ft 67 kts 226°
2026-05-04 22:40 40.84409 -77.85804 1518 ft 66 kts 225°
2026-05-04 22:41 40.84086 -77.86292 1604 ft 80 kts 221°
2026-05-04 22:41 40.83857 -77.86979 1835 ft 93 kts 283°
2026-05-04 22:41 40.84455 -77.87296 2158 ft 112 kts 15°
2026-05-04 22:41 40.85071 -77.86646 2529 ft 112 kts 23°
2026-05-04 22:42 40.85770 -77.86185 2919 ft 114 kts 20°
2026-05-04 22:42 40.86469 -77.85677 3292 ft 112 kts 18°
2026-05-04 22:42 40.87153 -77.85186 3669 ft 114 kts 20°
2026-05-04 22:42 40.87839 -77.84687 4043 ft 111 kts 19°
2026-05-04 22:43 40.88519 -77.84190 4410 ft 113 kts 20°
2026-05-04 22:43 40.89222 -77.83676 4650 ft 115 kts 20°
2026-05-04 22:43 40.89926 -77.83165 4910 ft 115 kts 19°
2026-05-04 22:43 40.90639 -77.82644 5164 ft 118 kts 20°
2026-05-04 22:44 40.91367 -77.82112 5424 ft 121 kts 20°
2026-05-04 22:44 40.92164 -77.81539 5510 ft 144 kts 19°
2026-05-04 22:44 40.93107 -77.80853 5510 ft 164 kts 21°
2026-05-04 22:44 40.94147 -77.80085 5511 ft 177 kts 22°
2026-05-04 22:45 40.95247 -77.79275 5513 ft 185 kts 23°
2026-05-04 22:45 40.97545 -77.77596 5509 ft 192 kts 23°
2026-05-04 22:45 40.98729 -77.76728 5505 ft 196 kts 22°
2026-05-04 22:46 40.99921 -77.75858 5503 ft 196 kts 23°
2026-05-04 22:46 41.01115 -77.74984 5503 ft 196 kts 22°
2026-05-04 22:46 41.02302 -77.74114 5499 ft 195 kts 22°
2026-05-04 22:46 41.03484 -77.73248 5499 ft 193 kts 23°
2026-05-04 22:47 41.04658 -77.72386 5498 ft 193 kts 22°
2026-05-04 22:47 41.05831 -77.71527 5500 ft 192 kts 22°
2026-05-04 22:47 41.07007 -77.70666 5496 ft 193 kts 23°
2026-05-04 22:47 41.08182 -77.69805 5494 ft 193 kts 23°
2026-05-04 22:48 41.09338 -77.68953 5493 ft 190 kts 22°
2026-05-04 22:48 41.10501 -77.68103 5494 ft 191 kts 22°
2026-05-04 22:48 41.11660 -77.67252 5484 ft 186 kts 22°
2026-05-04 22:48 41.12432 -77.66685 5481 ft 188 kts 22°
2026-05-04 22:49 41.13577 -77.65843 5494 ft 189 kts 21°
2026-05-04 22:49 41.14728 -77.64996 5495 ft 189 kts 22°
2026-05-04 22:49 41.15886 -77.64146 5498 ft 191 kts 22°
2026-05-04 22:49 41.17048 -77.63290 5496 ft 191 kts 21°
2026-05-04 22:50 41.18209 -77.62436 5499 ft 191 kts 22°
2026-05-04 22:50 41.19366 -77.61584 5503 ft 190 kts 22°
2026-05-04 22:50 41.20529 -77.60727 5501 ft 191 kts 22°
2026-05-04 22:50 41.21693 -77.59868 5503 ft 191 kts 22°
2026-05-04 22:51 41.22858 -77.59010 5498 ft 192 kts 22°
2026-05-04 22:51 41.24025 -77.58148 5500 ft 192 kts 22°
2026-05-04 22:51 41.25197 -77.57283 5496 ft 192 kts 22°
2026-05-04 22:51 41.26363 -77.56423 5497 ft 192 kts 22°
2026-05-04 22:52 41.27513 -77.55574 5494 ft 191 kts 22°
2026-05-04 22:52 41.28673 -77.54718 5496 ft 190 kts 21°
2026-05-04 22:52 41.29849 -77.53848 5496 ft 192 kts 22°
2026-05-04 22:52 41.31018 -77.52982 5491 ft 193 kts 22°
2026-05-04 22:53 41.32178 -77.52124 5489 ft 193 kts 22°
2026-05-04 22:53 41.33367 -77.51247 5491 ft 193 kts 22°
2026-05-04 22:53 41.34548 -77.50372 5494 ft 195 kts 22°
2026-05-04 22:53 41.35717 -77.49504 5488 ft 195 kts 21°
2026-05-04 22:54 41.36906 -77.48624 5502 ft 192 kts 22°
2026-05-04 22:54 41.38075 -77.47759 5486 ft 196 kts 22°
2026-05-04 22:54 41.39275 -77.46867 5477 ft 194 kts 22°
2026-05-04 22:54 41.40418 -77.46014 5492 ft 189 kts 21°
2026-05-04 22:55 41.41594 -77.45148 5486 ft 192 kts 21°
2026-05-04 22:55 41.42746 -77.44294 5488 ft 192 kts 21°
2026-05-04 22:55 41.43910 -77.43426 5493 ft 191 kts 22°
2026-05-04 22:55 41.45077 -77.42560 5490 ft 193 kts 21°
2026-05-04 22:56 41.46246 -77.41692 5483 ft 192 kts 22°
2026-05-04 22:56 41.47414 -77.40823 5490 ft 193 kts 22°
2026-05-04 22:56 41.48592 -77.39946 5489 ft 193 kts 22°
2026-05-04 22:56 41.49764 -77.39075 5497 ft 193 kts 22°
2026-05-04 22:57 41.50933 -77.38201 5503 ft 193 kts 23°
2026-05-04 22:57 41.52112 -77.37325 5499 ft 195 kts 21°
2026-05-04 22:57 41.53295 -77.36443 5505 ft 195 kts 21°
2026-05-04 22:57 41.54482 -77.35557 5502 ft 195 kts 22°
2026-05-04 22:58 41.55673 -77.34668 5499 ft 196 kts 21°
2026-05-04 22:58 41.56859 -77.33783 5499 ft 195 kts 21°
2026-05-04 22:58 41.58053 -77.32892 5497 ft 193 kts 20°
2026-05-04 22:58 41.59185 -77.32043 5509 ft 187 kts 20°
2026-05-04 22:59 41.60334 -77.31190 5502 ft 190 kts 22°
2026-05-04 22:59 41.61492 -77.30324 5497 ft 191 kts 20°
2026-05-04 22:59 41.62636 -77.29466 5497 ft 186 kts 21°
2026-05-04 22:59 41.63776 -77.28615 5504 ft 189 kts 21°
2026-05-04 23:00 41.64929 -77.27755 5500 ft 190 kts 20°
2026-05-04 23:00 41.66083 -77.26888 5501 ft 191 kts 20°
2026-05-04 23:00 41.67240 -77.26021 5499 ft 191 kts 22°
2026-05-04 23:00 41.68398 -77.25154 5507 ft 192 kts 21°
2026-05-04 23:01 41.69572 -77.24275 5495 ft 194 kts 20°
2026-05-04 23:01 41.70751 -77.23390 5491 ft 194 kts 20°
2026-05-04 23:01 41.71921 -77.22510 5498 ft 192 kts 21°
2026-05-04 23:01 41.73085 -77.21635 5499 ft 192 kts 20°
2026-05-04 23:02 41.74255 -77.20759 5497 ft 193 kts 21°
2026-05-04 23:02 41.75420 -77.19884 5493 ft 191 kts 20°
2026-05-04 23:02 41.76581 -77.19010 5495 ft 192 kts 21°
2026-05-04 23:02 41.77742 -77.18136 5489 ft 190 kts 21°
2026-05-04 23:03 41.78896 -77.17269 5487 ft 190 kts 21°
2026-05-04 23:03 41.80053 -77.16400 5489 ft 191 kts 20°
2026-05-04 23:03 41.81211 -77.15532 5492 ft 191 kts 21°
2026-05-04 23:03 41.82368 -77.14654 5485 ft 191 kts 21°
2026-05-04 23:04 41.83518 -77.13786 5483 ft 189 kts 20°
2026-05-04 23:04 41.84671 -77.12923 5377 ft 192 kts 20°
2026-05-04 23:04 41.85832 -77.11991 5234 ft 197 kts 33°
2026-05-04 23:04 41.86667 -77.10596 5100 ft 193 kts 50°
2026-05-04 23:05 41.87411 -77.09089 4972 ft 194 kts 50°
2026-05-04 23:05 41.88169 -77.07583 4846 ft 196 kts 50°
2026-05-04 23:05 41.88981 -77.06118 4701 ft 193 kts 37°
2026-05-04 23:05 41.90090 -77.05313 4576 ft 176 kts
2026-05-04 23:06 41.91289 -77.05009 4444 ft 179 kts
2026-05-04 23:06 41.92471 -77.04375 4316 ft 186 kts 18°
2026-05-04 23:06 41.93619 -77.03615 4189 ft 183 kts 18°
2026-05-04 23:06 41.94768 -77.02865 4065 ft 186 kts 17°
2026-05-04 23:07 41.95940 -77.02107 3945 ft 188 kts 18°
2026-05-04 23:07 41.97132 -77.01342 3798 ft 191 kts 18°
2026-05-04 23:07 41.98317 -77.00580 3579 ft 186 kts 19°
2026-05-04 23:07 41.99468 -76.99834 3374 ft 182 kts 18°
2026-05-04 23:08 42.00603 -76.99106 3165 ft 179 kts 18°
2026-05-04 23:08 42.01717 -76.98393 2953 ft 176 kts 17°
2026-05-04 23:08 42.02803 -76.97692 2757 ft 174 kts 18°
2026-05-04 23:08 42.03899 -76.96983 2547 ft 175 kts 19°
2026-05-04 23:09 42.04992 -76.96282 2348 ft 174 kts 18°
2026-05-04 23:09 42.06094 -76.95572 2172 ft 178 kts 19°
2026-05-04 23:09 42.07187 -76.94863 1989 ft 175 kts 21°
2026-05-04 23:09 42.08258 -76.94163 1962 ft 166 kts 21°
2026-05-04 23:10 42.09256 -76.93529 1956 ft 158 kts 18°
2026-05-04 23:10 42.10240 -76.92895 1959 ft 157 kts 21°
2026-05-04 23:10 42.11233 -76.92250 1954 ft 151 kts 21°
2026-05-04 23:10 42.12142 -76.91661 1960 ft 139 kts 19°
2026-05-04 23:11 42.12986 -76.91113 1985 ft 130 kts 19°
2026-05-04 23:11 42.13733 -76.90616 1981 ft 113 kts 21°
2026-05-04 23:11 42.14348 -76.89976 2005 ft 110 kts 40°
2026-05-04 23:11 42.14799 -76.89135 1954 ft 112 kts 55°
2026-05-04 23:12 42.15274 -76.88303 1955 ft 110 kts 47°
2026-05-04 23:12 42.15764 -76.87514 1928 ft 112 kts 48°
2026-05-04 23:12 42.16290 -76.86762 1843 ft 112 kts 42°
2026-05-04 23:12 42.17005 -76.86435 1544 ft 108 kts 336°
2026-05-04 23:13 42.17427 -76.87071 1321 ft 85 kts 260°
2026-05-04 23:13 42.17074 -76.87592 1117 ft 70 kts 224°
2026-05-04 23:13 42.16762 -76.88065 993 ft 70 kts 227°
2026-05-04 23:13 42.16494 -76.88499 956 ft 43 kts 223°
2026-05-04 23:14 42.16458 -76.88604 955 ft 11 kts 315°
2026-05-04 23:14 42.16502 -76.88670 953 ft 3 kts 285°
2026-05-04 23:14 42.16507 -76.88715 952 ft 7 kts 281°
2026-05-04 23:14 42.16520 -76.88804 951 ft 12 kts 276°
2026-05-04 23:15 42.16540 -76.88943 950 ft 16 kts 283°
2026-05-04 23:15 42.16508 -76.89075 950 ft 9 kts 228°
2026-05-04 23:15 42.16506 -76.89077 950 ft 0 kts 223°
2026-05-04 23:15 42.16504 -76.89080 950 ft 4 kts 221°
2026-05-04 23:16 42.16447 -76.89166 949 ft 15 kts 263°
2026-05-04 23:16 42.16445 -76.89254 948 ft 0 kts 228°